METAR Formatted Surface Weather Observation
Issued by NWS Los Angeles, CA

Home | Current Version | Previous Version | Text Only | Print | Product List | Glossary On
Versions: 1 2 3 4 5 6 7 8 9 10 11 12 13 14 15 16 17 18 19 20 21 22 23 24 25 26 27 28 29 30 31 32 33 34 35 36 37 38 39 40 41 42 43 44 45 46 47 48 49 50
283
SAUS46 KLOX 220549
MTRCQT
METAR KCQT 220547Z AUTO 00000KT 10SM FEW029 BKN100 13/08 A3010 RMK
AO2 SLP191 T01330083 10161 20133 51016



USA.gov is the U.S. government's official web portal to all federal, state and local government web resources and services.